Погода Маслянино

Погода Маслянино : погода сейчас, прогноз погоды и архив. Всё, что Вы хотите узнать о погоде Маслянино!

Хотите узнать прогноз погоды Маслянино? Тогда Вам сюда: Погода Маслянино

Поиск расширенной информации на нашем сайте:

Другие новости

Новости СМИ2

Главная страница сайта

Новости сайта

03.07.2017

Напоминаем, что на нашем специализированном сайте Метеоцентр.Азия вы можете получить высокодетализированные автоматические прогнозы погоды по пунктам России, СНГ и мира в авиационном формате (включающие направление и скорость ветра, видимость, явления погоды, количество и форму облачности, нижнюю и верхнюю границу облачности).

Рекомендуем: Ремонт - Евроремонт офиса, екатеринбург

Погода Маслянино - сегодня

Время (UTC), дата Ветер
(°,м/с) 
Видим.   Явления Облачность Т
(°С)
Тd
(°С)
f(%) Тe
(°С)
Pmin
(гПа)
dP
(гПа)
Po
(мм)
O2
(г/м3)
Тmin Tmax R s Состояние
почвы
15 09.12.17 110 (В) 4000 м  дымка  ясно 
-18.8 -21.1 82 -19  1025.2  -1.1  749  326           
18 09.12.17 100 (В) 10 км    10/0 средняя 
[Ac trans]
-19.2 -21.6 81 -19  1026.1  0.8  749  326           
21 09.12.17 110 (В) 10 км    10/0 верхняя 
[Ci fib]
-18.3 -20.6 82 -21  1026.5  0.6  750  325           
00 10.12.17 190 (Ю) 10 км    10/0 верхняя 
[Ci fib]
-16.4 -18.5 84 -17  1027  0.6  750  323  -20.3      18  равномерный
сухой снег
100% 
03 10.12.17 140 (ЮВ) 10 км    10/10 450 м 
[Sc]
-14 -15.9 85 -14  1027.3  0.5  751  320           
06 10.12.17 тихо ()   1000 м  дымка  10/10 210 м 
[St]
-9.8 -10.5 95 -10  1027.3  0.5  751  315           
09 10.12.17 тихо ()   10 км    10/10 500 м 
[Sc]
-6.8 -7.2 97 -7  1025.6  -1.3  750  311           
12 10.12.17 110 (В) 4000 м  дымка  10/10 630 м 
[Sc]
-7.5 -7.9 97 -9  1025.1  -0.6  749  311    -6.7       
15 10.12.17 220 (ЮЗ) 4000 м  слаб. ливневой снег  10/10 300 м кучево-дожд. 
[Cb calv]
-3.2 -4.5 91 -6  1026.6  1.8  751  307           
18 10.12.17 170 (Ю) 2{10}  10 км  {ливн. осадки}  10/0 средняя, верхняя 
[Ac trans|Ci fib]
-6.1 -9.1 79 -8  1029.1  2.2  752  311           
21 10.12.17 170 (Ю) 10 км    10/0 верхняя 
[Ci fib]
-8 -10.5 82 -12  1030.4  1.1  753  314           
00 11.12.17 170 (Ю) 10 км    10/0 верхняя 
[Ci fib]
-9.5 -12.2 81 -12  1030.7  0.1  753  316  -9.5    0.2  18  равномерный
сухой снег
100% 
03 11.12.17 110 (В) 20000 м    6/3 600 м верхняя 
[Sc|Ci fib]
-12 -13.4 89 -15  1030.7  -0.2  753  319  -12         
06 11.12.17 100 (В) 20000 м    10/6 600 м верхняя 
[Sc|Ci]
-7 -11.2 72 -7  1029.1  -1.1  752  312           
09 11.12.17 130 (ЮВ) 20000 м    10/8 600 м верхняя 
[Sc|Ci]
-6.3 -11.4 67 -8  1028.2  -0.8  752  311           
12 11.12.17 тихо ()   20000 м    10/10 600 м 
[Sc]
-9 -12 79 -9  1027.9  -0.6  751  314    -5.8       
15 11.12.17 270 (З) 20000 м    10/10 600 м 
[Sc]
-9.7 -11.6 86 -10  1026.9  -1  751  315           
18 11.12.17 280 (З) 20000 м    ясно 
-14.7 -16 90 -15  1027.5  0.1  751  321           
21 11.12.17 290 (З) 10 км    ясно 
-17.1 -19.1 84 -17  1028.1  0.3  751  324           
00 12.12.17 тихо ()   10 км    10/0 верхняя 
[Ci fib]
-15.6 -17.6 85 -16  1028.8  0.9  752  323  -17.7      18  равномерный
сухой снег
100% 
03 12.12.17 100 (В) 4000 м  слаб. снег  10/0 средняя 
[As op]
-13.4 -15.3 86 -13  1030.4  1.8  753  320           
06 12.12.17 тихо ()   10 км  {снег}  10/0 средняя, верхняя 
[Ac trans|Ci fib]
-10.5 -14 75 -11  1031.3  1.1  754  317           
09 12.12.17 тихо ()   10 км    10/0 средняя 
[Ac trans]
-9.7 -12.5 80 -10  1032.4  1.1  755  316           
12 12.12.17 280 (З) 10 км    10/0 верхняя 
[Ci fib]
-11.3 -12.3 92 -11  1035.2  2.6  757  319    -9.5  0.0     
15 12.12.17 300 (СЗ) 10 км    10/0 верхняя 
[Ci fib]
-11.1 -12.6 89 -11  1037  1.8  758  320           
Время (UTC), дата Ветер
(°,м/с) 
Видим.   Явления Облачность Т
(°С)
Тd
(°С)
f(%) Тe
(°С)
Pmin
(гПа)
dP
(гПа)
Po
(мм)
O2
(г/м3)
Тmin Tmax R s Состояние
почвы

Для получения пояснительной информации подведите курсор к названию столбца.

ПОГОДА Маслянино - архив

Всё, что Вы хотите узнать о погоде Маслянино - удобно и подробно!

Выберите нужную дату (начиная с 1 января 2015* года) и нажмите кнопку "Найти".
Будут отображены архивные сводки погоды по пункту Маслянино, начиная с указанной даты.


Отображать данные в формате CSV (для использования в таблицах Excel)


Внимание! Наш архив погоды предназначен исключительно для личного некоммерческого использования в познавательных целях. Если Вам необходимы официальные справки о состоянии погоды (для производственных, юридических, коммерческих и т.п. целей), обращайтесь в органы Росгидромета.

*Примечание: данная дата относится к архиву по метеостанциям СССР (Россия, СНГ, Балтия).
Архив по метеостанциям Зарубежной Европы и Азии (кроме Китая) хранится 10 дней, по другим регионам земного шара (Китай, Африка, Америка, Австралия, Океания) - 1 день.

Маслянино - район местоположения метеостанции


Название, широта, долгота, высота метеостанции:
Маслянино 54.3°ш. 84.2°д. 198 м над ур. моря [Российская Федерация]

Дополнительная информация

В oтличие oт бoльшинства пoгoдных сайтoв мы публикуем пoдрoбную метеoинфoрмацию в детальнoм прoфессиoнальнoм фoрмате.

Характеристики температуры и влажнoсти вoздуха измеряются на высoте 2 м в тени вдали oт зданий и деревьев.
Скoрoсть ветра измеряется на высoте 10 м (на урoвне рoста челoвека скoрoсть ветра ниже в 1.5-2 раза). Если метеoстанция нахoдится в гoрoде или в лесу, тo скoрoсть ветра занижена на 2-4 м/с пo сравнению с oткрытым местoм. Скoрoсть ветра над акватoриями крупных рек и oзёр, а также на вершинах хoлмoв на 2-5 м/с выше, чем в oбычных услoвиях.
Атмoсфернoе давление в разных тoчках местнoсти мoжет значительнo oтличаться oт давления на метеoстанции, в зависимoсти oт услoвий рельефа (при пoдъёме на 10 м давление пoнижается примернo на 1 мм рт.ст.).